Reflectivity
8 2 -13 -7 6 6 5 3 9 -15 6 11 7 -6 -20 -20 -20 -20 -20 -20 -20 -20 -20 -20 -20 -20 -20 -20 -20 -20 -20 -20 -20 -20 -20 -20 -20 -20 -20 -20 -20 -20 -20 -20 -20
9 11 7 -20 -19 -4 -0 8 7 -19 8 -18 2 -2 -8 -20 -20 -20 -20 -20 -20 -20 -20 -20 -20 -20 -20 -20 -20 -20 -20 -20 -20 -20 -20 -20 -20 -20 -20 -20 -20 -20 -20 -20 -20
11 11 11 2 -18 5 8 9 4 10 -13 -20 -11 -20 -20 -20 -20 -20 -20 -20 -20 -20 -20 -20 -20 -20 -20 -20 -20 -20 -20 -20 -20 -20 -20 -20 -20 -20 -20 -20 -20 -20 -20 -20 -20
10 9 8 10 10 10 -8 -8 12 11 -5 7 -20 -20 -20 -20 -20 -20 -20 -20 -20 -20 -20 -20 -20 -20 -20 -20 -20 -20 -20 -20 -20 -20 -20 -20 -20 -20 -20 -20 -20 -20 -20 -20 -20
5 6 8 3 -6 12 6 8 9 7 12 9 -20 -20 -20 -20 -20 -20 -20 -20 -20 -20 -20 -20 -20 -20 -20 -20 -20 -20 -20 -20 -20 -20 -20 -20 -20 -20 -20 -20 -20 -20 -20 -20 -20
8 4 6 1 -14 11 -7 -12 10 7 11 -2 -20 -20 -20 -20 -20 -20 -20 -20 -20 -20 -20 -20 -20 -20 -20 -20 -20 -20 -20 -20 -20 -20 -20 -20 -20 -20 -20 -20 -20 -20 -20 -20 -20
5 5 1 -0 -15 6 6 -13 -9 -15 11 -2 -20 -20 -20 -20 -20 -20 -20 -20 -20 -20 -20 -20 -20 -20 -20 -20 -20 -20 -20 -20 -20 -20 -20 -20 -20 -20 -20 -20 -20 -20 -20 -20 -20
1 2 -5 -4 -17 -12 -20 -20 -20 -20 -18 -20 -20 -20 -20 -20 -20 -20 -20 -20 -20 -20 -20 -20 -20 -20 -20 -20 -20 -20 -20 -20 -20 -20 -20 -20 -20 -20 -20 -20 -20 -20 -20 -20 -20
3 -3 -4 -20 -20 -20 -20 -20 -20 -20 -20 -20 -20 -20 -20 -20 -20 -20 -20 -20 -20 -20 -20 -20 -20 -20 -20 -20 -20 -20 -20 -20 -20 -20 -20 -20 -20 -20 -20 -20 -20 -20 -20 -20 -20
9 3 -11 -20 -20 -20 -20 -20 -20 -20 -20 -20 -20 -20 -20 -20 -20 -20 -20 -20 -20 -20 -20 -20 -20 -20 -20 -20 -1 -20 -20 -20 -20 -20 -20 -20 -20 -20 -20 -20 -20 -20 -20 -20 -20
9 5 -1 -20 -12 -20 -20 -20 -20 -20 -20 -20 -20 -20 -20 -20 -20 -20 -20 -20 -20 -20 -20 -20 -20 -20 -20 -20 -20 -20 -20 -20 -20 -20 -20 -20 -20 -20 -20 -20 -20 -20 -20 -20 -20
9 7 -11 -20 -15 -20 -20 -20 -20 -20 -20 -20 -20 -20 -20 -20 -20 -20 -20 -20 -20 -20 -20 -20 -20 -20 -20 -20 -20 -20 -20 -20 -20 -20 -20 -20 -20 -20 -20 -20 -20 -20 -20 -20 -20
11 8 -20 0 -18 -20 -20 -20 -20 -20 -20 -20 -20 -20 -20 -20 -20 -20 -20 -20 -20 -20 -20 -20 -20 -20 -20 -20 -20 -20 -20 -20 -20 -20 -20 -20 -20 -20 -20 -20 -20 -20 -20 -20 -20
9 5 -2 -20 -20 -20 -20 -20 -20 -20 -20 -20 -20 -20 -20 -20 -20 -20 -20 -20 -20 -20 -20 -20 -20 -20 -20 -20 -20 -17 -20 -20 -20 -20 -20 -20 -20 -20 -20 -20 -20 -20 -20 -20 -20
7 10 -4 -14 -20 -20 -20 -20 -20 -20 -20 -20 -20 -20 -20 -20 -20 -20 -20 -20 -20 -20 -20 -20 -20 -20 -20 -20 -20 -20 -20 -20 -20 -20 -20 -20 -20 -20 -20 -20 -20 -20 -20 -20 -20
8 12 6 -19 -20 -20 -20 -20 -20 -20 -20 -20 -20 -20 -20 -20 -20 -20 -20 -20 -20 -20 -20 -20 -20 -20 -20 -20 -20 -20 -20 -20 -20 -20 -20 -20 -20 -20 -20 -20 -20 -20 -20 -20 -20
9 7 3 -20 -20 -20 -20 -20 -20 -20 -20 -20 -20 -20 -20 -20 -20 -20 -20 -20 -20 -20 -20 -20 -20 -20 -20 -20 -20 -20 -20 -20 -20 -20 -20 -16 -20 -20 -20 -20 -20 -20 -20 -20 -20
6 3 -20 -20 -20 -20 -20 -20 -20 -20 -20 -20 -20 -20 -20 -20 -20 -20 -20 -20 -20 -20 -20 -20 -20 -20 -20 -20 -20 -20 -20 -20 -20 -20 -20 -20 -20 -20 -20 -20 -20 -20 -20 -20 -20
-20 -20 -20 -20 -20 -20 -20 -20 -20 -20 -20 -20 -20 -20 -20 -20 -20 -20 -20 -20 -20 -20 -20 -20 -20 -20 -20 -20 -20 -20 -20 -20 -20 -20 -20 -19 -20 -20 -20 -20 -20 -20 -20 -20 -20
-20 -20 -20 -20 -20 -20 -20 -20 -20 -20 -20 -20 -20 -20 -20 -20 -20 -20 -20 -20 -20 -20 -20 -20 -20 -20 -20 -20 -20 -20 -20 -20 -20 -20 -20 -20 -20 -20 -20 -20 -20 -20 -20 -20 -20
-20 -20 -20 -20 -20 -20 -20 -20 -20 -20 -20 -20 -20 -20 -20 -20 -20 -20 -20 -20 -20 -20 -20 -20 -20 -20 -20 -20 -20 -20 -20 -20 -20 -20 -20 -20 -20 -20 -20 -20 -20 -20 -20 -20 -20
-20 -20 -20 -20 -20 -20 -20 -20 -20 -20 -20 -20 -20 -20 -20 -20 -20 -20 -20 -20 -20 -20 -20 -20 -20 -20 -20 -20 -20 -20 -20 -20 -20 -20 -20 -20 -20 -20 -20 -20 -20 -20 -20 -20 -20
-20 -20 -20 -20 -20 -20 -20 -20 -20 -20 -20 -20 -20 -20 -20 -20 -20 -20 -20 -20 -20 -20 -20 -20 -20 -20 -20 -20 -20 -20 -20 -20 -20 -20 -20 -20 -20 -20 -20 -20 -20 -20 -20 -20 -20
-20 -20 -20 -20 -20 -20 -20 -20 -20 -20 -20 -20 -20 -20 -20 -20 -20 -20 -20 -20 -20 -20 -20 -20 -20 -20 -20 -20 -20 -20 -20 -20 -20 -20 -20 -20 -20 -20 -20 -20 -20 -20 -20 -20 -17
-20 -20 -20 -20 -20 -20 -20 -20 -20 -20 -20 -20 -20 -20 -20 -20 -20 -20 -20 -20 -20 -20 -20 -20 -20 -20 -20 -20 -20 -20 -20 -20 -20 -20 -20 -20 -20 -20 -20 -20 -20 -20 -20 -20 -20
-20 -20 -20 -20 -20 -20 -20 -20 -20 -20 -20 -20 -20 -20 -20 -20 -20 -20 -20 -20 -20 -20 -20 -20 -20 -20 -20 -20 -20 -20 -20 -20 -20 -20 -20 -20 -20 -20 -20 -20 -20 -20 -20 -20 -20
-20 -20 -20 -20 -20 -20 -20 -20 -20 -20 -20 -20 -20 -20 -20 -20 -20 -20 -20 -20 -20 -20 -20 -20 -20 -20 -20 -20 -20 -20 -20 -20 -20 -20 -20 -20 -20 -20 -20 -20 -20 -20 -20 -20 -20
Wind_Speed
13 13 13 13 13 13 13 13 14 14 14 14 14 14 14 16 19 7 11 1 1 9 7 9 6 5 4 1 3 2 4 8 8 6 9 9 6 4 5 8 3 3 4 16 23
13 13 13 13 13 13 14 14 13 14 15 15 14 13 14 14 11 12 2 6 6 8 7 4 3 7 1 1 1 4 6 7 2 4 8 9 4 7 6 6 9 8 13 23 24
14 13 13 13 14 14 14 14 13 14 15 15 14 13 13 15 7 2 7 7 7 9 8 7 7 6 1 1 2 1 6 3 4 0 2 7 6 4 3 4 3 9 17 22 22
14 14 14 14 14 14 14 14 14 14 14 13 13 12 14 6 2 4 10 9 7 12 9 6 7 3 2 2 2 3 2 2 4 1 2 5 4 4 3 6 5 9 18 22 22
14 14 14 14 15 14 14 15 14 14 13 12 10 10 9 8 6 6 4 6 10 13 11 6 5 3 2 2 1 2 3 3 2 1 3 1 4 2 2 3 1 13 18 19 19
14 14 13 14 16 16 15 15 15 14 13 9 7 10 7 9 4 2 2 1 6 13 9 6 2 5 3 2 5 6 5 4 1 2 4 6 3 4 5 5 7 13 15 16 17
14 14 14 14 16 17 17 17 17 16 11 6 4 6 7 7 1 2 3 2 9 7 9 4 1 6 4 2 5 3 3 4 2 2 1 4 7 6 7 7 10 11 12 13 15
13 14 14 14 17 18 17 17 17 13 5 4 5 7 7 3 1 7 4 8 6 4 3 2 3 4 4 3 3 3 5 7 6 3 4 7 6 6 7 8 10 10 10 11 13
13 13 14 15 15 17 16 18 12 1 4 6 7 6 2 5 7 9 9 7 9 6 3 4 6 4 6 9 8 8 5 3 4 4 3 9 9 4 8 9 9 10 11 11 12
12 12 13 13 14 14 17 13 2 6 6 6 4 7 7 4 6 8 7 9 8 10 8 8 8 10 9 10 10 6 7 5 4 4 7 8 11 3 7 10 9 10 10 11 12
12 11 12 14 12 11 13 5 7 8 8 6 3 4 4 3 5 10 12 10 11 13 12 13 12 14 9 4 4 2 2 3 3 3 4 5 9 5 7 10 10 11 10 11 11
12 12 13 13 13 7 8 7 6 8 7 15 10 7 6 3 9 13 12 11 13 15 14 11 18 17 8 4 3 5 4 3 5 3 7 1 9 6 8 10 11 12 11 12 12
12 12 13 12 10 6 7 7 2 7 8 8 9 8 8 9 7 17 18 11 15 18 17 17 22 11 11 8 9 9 6 2 7 9 7 6 10 7 8 11 10 13 12 12 12
13 12 12 12 8 1 6 4 4 4 7 13 10 8 9 7 9 15 17 11 8 15 16 15 14 15 14 14 7 13 4 4 6 9 6 1 8 4 4 8 12 14 14 12 10
14 12 10 5 9 6 6 3 3 5 8 11 8 6 8 13 15 11 15 11 13 11 12 13 15 16 17 19 10 12 2 7 8 12 9 11 7 5 4 8 7 12 12 11 10
14 12 9 6 6 7 4 2 6 8 5 9 9 12 15 14 7 14 15 12 5 9 15 9 10 18 17 11 6 7 9 9 9 11 12 7 5 8 7 4 6 2 6 10 10
15 14 6 5 2 3 5 7 8 10 4 10 11 14 19 16 12 18 18 19 12 15 15 12 14 14 10 15 10 11 12 10 10 11 10 7 5 8 12 7 8 7 6 12 11
13 7 9 6 2 4 7 8 10 2 4 4 9 16 18 18 12 17 17 18 21 17 13 15 18 18 14 16 15 14 18 10 9 10 6 7 8 5 12 6 5 7 6 13 13
10 4 6 5 7 5 9 11 1 2 2 5 12 17 14 18 7 13 15 17 18 17 9 16 17 17 16 14 15 10 12 11 14 6 10 13 6 10 4 9 7 7 7 12 13
4 4 5 3 8 8 9 6 1 1 3 6 10 12 15 19 13 14 15 15 19 18 13 7 13 10 18 14 13 13 5 11 12 13 14 7 7 7 6 9 1 8 10 10 13
5 5 5 6 6 7 9 2 3 1 4 4 2 7 10 17 16 17 15 7 18 20 13 7 9 12 11 18 18 11 13 11 11 6 10 11 5 6 5 8 9 8 10 12 15
5 3 6 5 7 5 9 5 2 4 4 4 3 5 8 12 15 14 13 11 13 15 22 16 9 11 19 13 11 14 21 19 11 14 10 8 12 7 3 7 8 9 6 11 15
2 5 5 5 6 8 5 9 6 8 6 2 2 3 1 8 9 12 9 6 7 16 17 17 10 10 14 12 10 12 13 11 15 11 10 12 9 6 4 4 5 6 7 12 16
5 5 6 6 4 9 4 10 8 5 8 6 5 4 5 7 6 10 8 6 10 15 4 13 15 14 13 18 17 20 17 14 17 14 13 11 14 11 8 4 5 4 7 13 15
3 3 5 6 9 7 4 1 7 6 6 5 6 8 4 6 8 8 6 9 7 7 11 15 17 10 14 13 10 15 20 22 18 17 18 14 14 10 9 7 9 4 8 12 15
6 5 2 1 4 7 6 4 9 7 5 8 8 3 6 5 2 7 5 6 7 10 14 17 11 12 16 17 16 14 16 11 17 18 15 16 15 9 5 5 5 6 9 12 16
3 2 6 5 6 6 2 1 4 1 3 3 4 5 6 2 3 3 5 3 2 8 13 15 13 9 15 18 17 17 18 20 17 17 16 17 10 4 6 6 6 7 10 11 13
Wind_Direction
354 351 351 345 343 340 337 336 337 335 336 332 331 328 327 324 302 230 255 7 316 336 285 280 247 326 278 46 4 292 180 116 119 124 130 145 148 136 121 132 126 84 67 121 149
354 350 345 342 340 339 338 334 332 333 333 332 328 325 322 326 288 259 301 331 284 298 242 279 318 321 187 20 126 295 109 80 57 93 98 139 158 146 172 148 132 113 103 131 150
351 348 344 340 338 336 332 330 331 329 330 331 326 322 319 310 271 171 23 304 226 242 275 291 283 280 286 171 81 65 67 61 118 182 32 131 167 171 181 132 135 158 144 154 162
348 346 343 339 336 333 329 327 326 325 325 325 322 316 314 273 252 64 340 292 187 209 238 237 242 264 314 84 51 166 71 341 359 117 187 182 153 172 216 76 40 145 160 164 171
345 344 341 337 334 332 328 324 321 321 320 317 313 309 281 227 257 64 314 103 161 185 214 232 256 319 8 36 151 202 43 323 329 232 228 160 206 102 123 177 187 142 164 174 177
342 340 340 336 333 332 329 324 318 314 311 304 294 294 251 249 76 85 344 200 194 188 194 221 351 344 340 29 330 357 322 307 201 198 211 231 193 212 100 145 138 157 173 178 182
339 337 337 337 334 330 326 322 317 310 301 280 264 270 250 282 46 231 305 291 168 199 186 181 253 278 344 206 353 322 213 200 99 205 262 265 236 225 129 162 155 173 177 179 185
336 334 335 336 333 329 325 319 314 304 275 221 248 249 267 106 230 252 214 133 158 164 249 174 254 299 298 341 236 269 248 215 102 183 142 227 310 126 179 187 176 176 178 188 189
332 332 332 332 330 328 323 317 311 353 183 208 223 257 232 138 213 189 197 162 161 156 123 150 231 264 212 230 200 204 224 244 154 193 150 222 295 87 201 215 186 187 189 195 194
328 328 327 326 327 326 319 303 333 202 201 211 255 239 221 153 138 165 185 167 163 154 155 194 216 221 216 222 219 139 245 196 279 123 227 227 259 173 207 225 218 196 203 199 202
326 324 321 318 328 329 316 219 209 185 216 260 76 320 107 104 180 186 167 176 171 188 191 198 212 215 190 349 49 104 264 264 111 126 257 249 276 278 216 221 225 218 204 217 216
323 322 313 317 317 324 279 252 10 355 266 220 245 269 252 302 167 164 189 184 183 190 204 174 219 205 118 187 204 241 245 220 165 141 276 355 287 273 255 239 232 224 214 224 224
321 317 313 316 317 257 243 249 353 317 256 161 208 237 210 209 194 170 193 196 198 197 197 208 201 145 181 192 227 226 289 41 343 320 233 271 253 241 240 234 228 236 238 230 228
316 315 314 318 275 68 230 174 257 288 255 151 193 193 185 230 203 168 203 188 203 201 202 228 189 183 208 227 231 252 106 270 295 298 281 141 290 197 286 237 222 242 227 228 222
313 309 304 306 326 228 63 325 216 218 226 132 142 96 156 202 119 182 191 200 195 190 206 190 177 203 216 223 218 266 266 297 311 288 275 210 253 265 205 277 254 221 233 219 203
308 301 289 209 230 261 259 248 195 227 205 151 140 173 173 197 170 138 180 228 241 194 218 208 215 213 221 212 220 258 254 247 252 255 249 244 286 290 301 333 345 337 205 203 190
307 301 232 221 96 148 243 198 205 251 142 153 174 174 188 178 165 168 181 191 189 192 190 202 199 212 243 233 191 226 239 237 225 215 244 75 275 282 305 291 310 301 196 187 177
316 290 172 232 227 248 217 208 236 78 175 116 167 171 191 174 175 180 182 194 215 214 181 198 202 196 199 222 203 217 237 231 247 268 279 153 265 305 334 302 297 254 236 183 178
310 182 153 177 217 251 220 213 70 135 49 167 160 171 188 183 177 180 199 204 188 218 206 200 216 181 214 203 234 174 229 272 285 238 265 276 302 262 300 270 241 243 214 191 180
235 198 91 127 181 229 227 264 177 337 330 220 181 196 179 187 191 198 183 204 200 203 231 209 215 187 191 220 217 272 231 208 224 266 269 283 302 276 324 334 39 238 220 194 177
233 208 70 150 204 216 216 171 231 191 326 311 162 178 192 180 203 198 179 151 202 192 214 181 246 161 176 203 195 193 229 234 297 312 303 291 292 357 277 309 322 282 221 188 176
288 185 137 204 218 213 225 225 6 257 258 279 276 284 184 179 199 193 210 231 193 196 202 218 222 195 205 191 234 235 220 232 225 230 230 295 283 281 300 312 310 305 183 184 175
275 111 168 258 226 201 187 243 261 275 279 263 248 267 222 180 193 207 205 128 207 192 202 199 229 208 204 179 204 233 227 237 252 273 276 281 293 93 154 266 310 293 172 173 178
267 170 149 214 285 287 217 231 241 201 264 273 288 245 202 185 213 184 191 154 195 213 175 183 229 230 214 224 206 211 226 226 242 243 242 236 278 308 296 347 320 200 183 176 189
228 66 0 178 201 229 236 327 225 216 216 233 225 240 227 196 187 192 179 151 180 165 198 223 229 228 242 266 245 250 222 222 232 249 266 286 297 299 326 330 319 234 175 185 179
313 322 191 281 170 212 165 215 229 190 248 192 246 353 233 230 313 182 194 195 175 175 198 215 235 241 232 236 235 239 242 246 221 243 262 265 279 310 10 316 287 228 194 184 184
10 260 284 131 193 240 143 300 186 233 178 324 319 282 215 102 3 3 342 340 356 181 193 206 231 211 242 235 235 235 239 234 235 238 241 249 259 24 317 298 283 222 210 197 194